DW7589 Weather Reports


time (UTC)temp
C
wind
direction
speed
KPH
gust
KPH
rain 1hr
cm
rain 24hr
cm
rain mn
cm
humidity
%
barometer
mb
20260903044741 27 152 1.6 3.2 0.00 0.00 0.00 74 1012.8
20260903044241 27 152 1.6 3.2 0.00 0.00 0.00 74 1012.8
20260903043741 27 152 1.6 3.2 0.00 0.00 0.00 74 1012.9
20260903043241 27 146 3.2 6.4 0.00 0.00 0.00 74 1013.0
20260903042742 27 140 3.2 6.4 0.00 0.00 0.00 73 1013.1
20260903041741 27 138 3.2 6.4 0.00 0.00 0.00 73 1013.2
20260903040241 28 152 4.8 9.7 0.00 0.00 0.00 73 1013.3
20260903035741 28 151 4.8 9.7 0.00 0.00 0.00 72 1013.2
20260903035241 28 148 4.8 9.7 0.00 0.00 0.00 71 1013.2
20260903034741 28 149 4.8 8.0 0.00 0.00 0.00 70 1013.3
20260903034242 28 145 3.2 8.0 0.00 0.00 0.00 68 1013.2
20260903033741 28 138 3.2 8.0 0.00 0.00 0.00 68 1013.2
20260903033241 28 136 3.2 8.0 0.00 0.00 0.00 66 1013.1
20260903032742 28 136 3.2 8.0 0.00 0.00 0.00 66 1012.9
20260903032241 28 132 3.2 4.8 0.00 0.00 0.00 65 1012.8
20260903031742 28 126 3.2 4.8 0.00 0.00 0.00 64 1012.9
20260903031241 28 128 3.2 8.0 0.00 0.00 0.00 64 1012.8
20260903030741 29 135 4.8 8.0 0.00 0.00 0.00 64 1012.8
20260903030241 29 137 3.2 6.4 0.00 0.00 0.00 65 1012.9
20260903025742 29 134 3.2 6.4 0.00 0.00 0.00 65 1012.8
20260903025242 29 137 4.8 8.0 0.00 0.00 0.00 65 1012.8
20260903024741 29 139 4.8 8.0 0.00 0.00 0.00 65 1012.7
20260903024242 29 138 3.2 6.4 0.00 0.00 0.00 65 1012.7
20260903023742 30 138 3.2 9.7 0.00 0.00 0.00 64 1012.6
20260903022742 30 145 3.2 6.4 0.00 0.00 0.00 64 1012.4
20260903022241 30 152 3.2 6.4 0.00 0.00 0.00 63 1012.3
20260903021741 30 154 3.2 6.4 0.00 0.00 0.00 63 1012.2
20260903021241 30 144 3.2 6.4 0.00 0.00 0.00 63 1012.1
20260903020741 30 129 3.2 6.4 0.00 0.00 0.00 62 1012.0
20260903020241 30 133 3.2 6.4 0.00 0.00 0.00 62 1011.9
20260903015742 30 132 3.2 6.4 0.00 0.00 0.00 61 1011.7
20260903015241 30 117 3.2 4.8 0.00 0.00 0.00 60 1011.6
20260903014742 30 109 3.2 4.8 0.00 0.00 0.00 60 1011.5
20260903014241 31 112 3.2 9.7 0.00 0.00 0.00 59 1011.4
20260903013741 31 114 3.2 9.7 0.00 0.00 0.00 59 1011.4
20260903013241 31 124 3.2 9.7 0.00 0.00 0.00 59 1011.4
20260903012742 31 129 3.2 8.0 0.00 0.00 0.00 59 1011.4
20260903012241 31 123 3.2 6.4 0.00 0.00 0.00 58 1011.4
20260903011742 31 119 3.2 9.7 0.00 0.00 0.00 58 1011.3
20260903011241 31 120 3.2 9.7 0.00 0.00 0.00 57 1011.3
20260903010741 31 117 3.2 8.0 0.00 0.00 0.00 57 1011.2
20260903010241 31 116 3.2 6.4 0.00 0.00 0.00 56 1011.1
20260903005741 32 122 3.2 6.4 0.00 0.00 0.00 56 1011.1
20260903005242 32 119 3.2 6.4 0.00 0.00 0.00 55 1011.1
20260903004742 32 112 3.2 6.4 0.00 0.00 0.00 54 1011.1
20260903004243 32 113 3.2 8.0 0.00 0.00 0.00 53 1011.1
20260903002741 33 116 4.8 9.7 0.00 0.00 0.00 49 1011.0
20260903002241 34 117 4.8 9.7 0.00 0.00 0.00 48 1010.7
20260903001742 35 117 3.2 11.3 0.00 0.00 0.00 46 1010.7
20260903001242 35 103 3.2 11.3 0.00 0.00 0.00 44 1010.6
20260903000741 35 105 4.8 12.9 0.00 0.00 0.00 43 1010.6
20260903000242 36 111 3.2 12.9 0.00 0.00 0.00 42 1010.6
20260902235741 37 108 3.2 11.3 0.00 0.00 0.00 40 1010.6
20260902234742 38 73 1.6 8.0 0.00 0.00 0.00 35 1010.4
20260902234241 38 75 1.6 6.4 0.00 0.00 0.00 33 1010.3
20260902233741 38 80 3.2 6.4 0.00 0.00 0.00 33 1010.2
20260902233241 38 75 3.2 12.9 0.00 0.00 0.00 33 1010.2
20260902232743 38 39 4.8 12.9 0.00 0.00 0.00 32 1010.2
20260902232241 39 37 4.8 12.9 0.00 0.00 0.00 32 1010.2
20260902231741 39 59 3.2 9.7 0.00 0.00 0.00 32 1010.2
20260902231242 39 68 3.2 8.0 0.00 0.00 0.00 32 1010.2
20260902230741 39 42 4.8 12.9 0.00 0.00 0.00 32 1010.2
20260902230241 39 34 4.8 12.9 0.00 0.00 0.00 32 1010.2
20260902225741 39 31 3.2 11.3 0.00 0.00 0.00 32 1010.2
20260902224742 39 77 3.2 9.7 0.00 0.00 0.00 32 1010.1
20260902223742 39 17 6.4 19.3 0.00 0.00 0.00 32 1010.1
20260902223241 39 17 8.0 17.7 0.00 0.00 0.00 31 1010.2
20260902222243 40 7 3.2 14.5 0.00 0.00 0.00 31 1010.1
20260902221741 40 21 3.2 8.0 0.00 0.00 0.00 31 1010.2
20260902221241 40 28 6.4 17.7 0.00 0.00 0.00 31 1010.2
20260902220741 40 22 6.4 17.7 0.00 0.00 0.00 31 1010.3
20260902220242 39 20 4.8 17.7 0.00 0.00 0.00 31 1010.4
20260902215241 38 13 6.4 14.5 0.00 0.00 0.00 33 1010.4
20260902214742 39 15 6.4 16.1 0.00 0.00 0.00 32 1010.4
20260902214241 40 23 6.4 17.7 0.00 0.00 0.00 32 1010.4
20260902213741 39 29 4.8 17.7 0.00 0.00 0.00 31 1010.5
20260902213241 38 53 3.2 14.5 0.00 0.00 0.00 32 1010.5
20260902212241 38 18 4.8 19.3 0.00 0.00 0.00 33 1010.6
20260902211743 38 20 6.4 19.3 0.00 0.00 0.00 34 1010.8
20260902211241 38 33 6.4 16.1 0.00 0.00 0.00 33 1010.7
20260902210742 39 20 4.8 16.1 0.00 0.00 0.00 32 1010.7
20260902210241 40 335 3.2 11.3 0.00 0.00 0.00 32 1010.8
20260902205241 39 359 4.8 14.5 0.00 0.00 0.00 31 1011.0
20260902204742 39 16 6.4 19.3 0.00 0.00 0.00 31 1011.1
20260902204242 40 20 4.8 19.3 0.00 0.00 0.00 32 1011.1
20260902203742 40 355 3.2 8.0 0.00 0.00 0.00 33 1011.1
20260902202241 39 3 3.2 12.9 0.00 0.00 0.00 34 1011.4
20260902201742 38 13 6.4 16.1 0.00 0.00 0.00 33 1011.5
20260902200742 39 9 3.2 16.1 0.00 0.00 0.00 33 1011.6
20260902200242 38 347 3.2 8.0 0.00 0.00 0.00 35 1011.6
20260902195742 38 10 4.8 11.3 0.00 0.00 0.00 36 1011.7
20260902194742 37 4 3.2 12.9 0.00 0.00 0.00 38 1011.9
20260902194241 37 2 4.8 12.9 0.00 0.00 0.00 37 1012.0
20260902193742 38 1 4.8 12.9 0.00 0.00 0.00 36 1012.1
20260902193243 38 13 3.2 9.7 0.00 0.00 0.00 34 1012.2
20260902192742 38 50 3.2 11.3 0.00 0.00 0.00 36 1012.2
20260902191742 38 30 4.8 19.3 0.00 0.00 0.00 37 1012.3
20260902191241 38 22 6.4 19.3 0.00 0.00 0.00 36 1012.5
20260902190742 38 34 4.8 16.1 0.00 0.00 0.00 36 1012.5
20260902185741 38 28 6.4 16.1 0.00 0.00 0.00 37 1012.7
20260902185242 37 18 8.0 17.7 0.00 0.00 0.00 36 1012.8
20260902184742 37 22 6.4 17.7 0.00 0.00 0.00 36 1012.9
20260902184242 38 50 3.2 16.1 0.00 0.00 0.00 38 1013.0
20260902183741 37 41 3.2 12.9 0.00 0.00 0.00 38 1013.1
20260902183242 37 39 3.2 12.9 0.00 0.00 0.00 39 1013.2
20260902181742 37 26 4.8 19.3 0.00 0.00 0.00 39 1013.3
20260902181241 37 18 6.4 20.9 0.00 0.00 0.00 40 1013.5
20260902180742 37 17 4.8 20.9 0.00 0.00 0.00 39 1013.6
20260902180242 37 2 4.8 16.1 0.00 0.00 0.00 40 1013.7
20260902175742 37 8 4.8 16.1 0.00 0.00 0.00 39 1013.8
20260902175241 37 13 4.8 11.3 0.00 0.00 0.00 40 1013.9
20260902174742 37 22 4.8 16.1 0.00 0.00 0.00 42 1014.0
20260902174242 37 24 4.8 16.1 0.00 0.00 0.00 42 1014.2
20260902173742 36 13 4.8 16.1 0.00 0.00 0.00 42 1014.2
20260902173242 36 9 4.8 14.5 0.00 0.00 0.00 42 1014.4
20260902172742 36 305 4.8 11.3 0.00 0.00 0.00 44 1014.5
20260902172241 35 250 4.8 12.9 0.00 0.00 0.00 45 1014.6
20260902171742 36 254 4.8 12.9 0.00 0.00 0.00 44 1014.7
20260902171241 35 325 4.8 12.9 0.00 0.00 0.00 46 1014.9
20260902170241 35 161 3.2 6.4 0.00 0.00 0.00 47 1014.9
20260902165742 35 345 3.2 14.5 0.00 0.00 0.00 47 1015.0
20260902165241 35 14 4.8 14.5 0.00 0.00 0.00 48 1015.1
20260902164742 35 33 4.8 12.9 0.00 0.00 0.00 47 1015.1
20260902163241 34 135 3.2 8.0 0.00 0.00 0.00 49 1015.3
20260902162743 33 212 3.2 8.0 0.00 0.00 0.00 51 1015.4
20260902162242 33 263 3.2 6.4 0.00 0.00 0.00 50 1015.4
20260902161742 34 275 3.2 6.4 0.00 0.00 0.00 50 1015.4
20260902161243 34 25 3.2 8.0 0.00 0.00 0.00 51 1015.5
20260902160742 33 25 3.2 8.0 0.00 0.00 0.00 50 1015.4
20260902160242 33 14 3.2 8.0 0.00 0.00 0.00 51 1015.5
20260902155741 33 272 3.2 6.4 0.00 0.00 0.00 52 1015.5
20260902155242 33 240 3.2 6.4 0.00 0.00 0.00 54 1015.5
20260902154742 33 255 1.6 6.4 0.00 0.00 0.00 53 1015.4
20260902154242 33 347 1.6 6.4 0.00 0.00 0.00 53 1015.4
20260902153742 32 76 1.6 6.4 0.00 0.00 0.00 54 1015.5
20260902153241 32 166 1.6 4.8 0.00 0.00 0.00 55 1015.5
20260902152742 32 167 1.6 4.8 0.00 0.00 0.00 55 1015.5
20260902152242 32 172 1.6 4.8 0.00 0.00 0.00 56 1015.5
20260902151242 31 135 1.6 6.4 0.00 0.00 0.00 56 1015.5
20260902150741 31 133 1.6 6.4 0.00 0.00 0.00 57 1015.5
20260902150242 31 140 1.6 6.4 0.00 0.00 0.00 58 1015.6
20260902145242 31 124 1.6 4.8 0.00 0.00 0.00 60 1015.6
20260902144741 31 115 1.6 4.8 0.00 0.00 0.00 61 1015.6
20260902142743 30 129 1.6 6.4 0.00 0.00 0.00 63 1015.7
20260902141741 30 101 1.6 4.8 0.00 0.00 0.00 65 1015.7
20260902141242 29 110 1.6 4.8 0.00 0.00 0.00 66 1015.7
20260902140743 28 82 1.6 4.8 0.00 0.00 0.00 67 1015.6
20260902140242 28 81 1.6 4.8 0.00 0.00 0.00 69 1015.5
20260902135742 27 73 1.6 4.8 0.00 0.00 0.00 71 1015.5
20260902135244 27 37 1.6 4.8 0.00 0.00 0.00 73 1015.5
20260902134242 26 0 0.0 3.2 0.00 0.00 0.00 76 1015.4
20260902133742 26 45 1.6 3.2 0.00 0.00 0.00 77 1015.4
20260902133243 25 52 1.6 3.2 0.00 0.00 0.00 78 1015.4
20260902132743 25 78 1.6 4.8 0.00 0.00 0.00 79 1015.4
20260902132242 25 0 0.0 4.8 0.00 0.00 0.00 80 1015.4
20260902131242 25 21 1.6 4.8 0.00 0.00 0.00 80 1015.3
20260902130742 25 30 1.6 4.8 0.00 0.00 0.00 81 1015.3
20260902130242 24 39 1.6 3.2 0.00 0.00 0.00 82 1015.3
20260902125742 24 0 0.0 3.2 0.00 0.00 0.00 82 1015.2
20260902125242 24 0 0.0 1.6 0.00 0.00 0.00 82 1015.2
20260902124742 24 0 0.0 3.2 0.00 0.00 0.00 82 1015.1
20260902124242 24 36 1.6 3.2 0.00 0.00 0.00 82 1015.0
20260902123742 24 28 1.6 3.2 0.00 0.00 0.00 82 1014.9
20260902122744 24 32 1.6 3.2 0.00 0.00 0.00 82 1014.8
20260902121742 24 30 1.6 3.2 0.00 0.00 0.00 82 1014.7
20260902121242 24 21 1.6 3.2 0.00 0.00 0.00 82 1014.8
20260902120742 24 14 1.6 3.2 0.00 0.00 0.00 82 1014.7
20260902120242 24 0 0.0 3.2 0.00 0.00 0.00 82 1014.8
20260902115742 24 0 0.0 3.2 0.00 0.00 0.00 82 1014.8
20260902115242 24 0 0.0 3.2 0.00 0.00 0.00 82 1014.7
20260902114743 24 0 0.0 1.6 0.00 0.00 0.00 82 1014.7
20260902114244 24 0 0.0 3.2 0.00 0.00 0.00 81 1014.6
20260902113742 24 9 1.6 3.2 0.00 0.00 0.00 81 1014.6
20260902113243 24 11 1.6 3.2 0.00 0.00 0.00 81 1014.6
20260902112742 24 0 0.0 3.2 0.00 0.00 0.00 81 1014.6
20260902112242 24 0 0.0 1.6 0.00 0.00 0.00 80 1014.6
20260902110742 24 35 1.6 3.2 0.00 0.00 0.00 80 1014.7
20260902105742 24 0 0.0 3.2 0.00 0.00 0.00 80 1014.7
20260902105242 25 0 0.0 1.6 0.00 0.00 0.00 80 1014.8
20260902104743 25 0 0.0 1.6 0.00 0.00 0.00 79 1014.8
20260902104242 25 0 0.0 1.6 0.00 0.00 0.00 79 1014.7
20260902103742 25 0 0.0 0.0 0.00 0.00 0.00 79 1014.7
20260902103242 25 0 0.0 1.6 0.00 0.00 0.00 79 1014.7
20260902102742 25 0 0.0 1.6 0.00 0.00 0.00 79 1014.7
20260902102242 25 0 0.0 3.2 0.00 0.00 0.00 79 1014.7
20260902101742 25 0 0.0 3.2 0.00 0.00 0.00 79 1014.6
20260902101242 25 0 0.0 3.2 0.00 0.00 0.00 78 1014.6
20260902100743 25 0 0.0 0.0 0.00 0.00 0.00 78 1014.5
20260902100242 25 0 0.0 0.0 0.00 0.00 0.00 77 1014.4
20260902095742 25 0 0.0 0.0 0.00 0.00 0.00 77 1014.5
20260902095243 25 0 0.0 0.0 0.00 0.00 0.00 76 1014.5
20260902094242 25 0 0.0 0.0 0.00 0.00 0.00 76 1014.5
20260902093742 26 0 0.0 0.0 0.00 0.00 0.00 75 1014.5
20260902093244 26 0 0.0 0.0 0.00 0.00 0.00 74 1014.5
20260902092243 26 0 0.0 1.6 0.00 0.00 0.00 73 1014.5
20260902091742 26 0 0.0 1.6 0.00 0.00 0.00 73 1014.6
20260902091242 26 0 0.0 1.6 0.00 0.00 0.00 72 1014.6
20260902090742 26 0 0.0 1.6 0.00 0.00 0.00 72 1014.6
20260902090243 26 0 0.0 1.6 0.00 0.00 0.00 72 1014.6
20260902085742 26 0 0.0 3.2 0.00 0.00 0.00 72 1014.5
20260902085243 26 0 0.0 3.2 0.00 0.00 0.00 71 1014.6
20260902084742 26 0 0.0 1.6 0.00 0.00 0.00 71 1014.5
20260902083742 27 0 0.0 1.6 0.00 0.00 0.00 71 1014.6
20260902083243 27 0 0.0 1.6 0.00 0.00 0.00 71 1014.6
20260902082743 27 0 0.0 1.6 0.00 0.00 0.00 71 1014.6
20260902082242 27 0 0.0 1.6 0.00 0.00 0.00 70 1014.6
20260902081742 27 0 0.0 3.2 0.00 0.00 0.00 70 1014.7
20260902081243 27 0 0.0 3.2 0.00 0.00 0.00 70 1014.7
20260902080742 27 0 0.0 1.6 0.00 0.00 0.00 70 1014.7
20260902075243 27 0 0.0 0.0 0.00 0.00 0.00 70 1014.8
20260902074742 27 0 0.0 1.6 0.00 0.00 0.00 69 1014.8
20260902074243 27 0 0.0 1.6 0.00 0.00 0.00 69 1014.9
20260902073742 27 0 0.0 1.6 0.00 0.00 0.00 69 1014.9
20260902072742 27 0 0.0 1.6 0.00 0.00 0.00 69 1015.0
20260902072242 27 0 0.0 1.6 0.00 0.00 0.00 69 1015.0
20260902071742 27 0 0.0 1.6 0.00 0.00 0.00 68 1015.0
20260902071243 27 0 0.0 1.6 0.00 0.00 0.00 68 1015.0
20260902070743 27 0 0.0 3.2 0.00 0.00 0.00 68 1015.0
20260902070244 27 164 1.6 3.2 0.00 0.00 0.00 68 1015.0
20260902065743 27 164 1.6 3.2 0.00 0.00 0.00 68 1015.1
20260902064743 27 0 0.0 3.2 0.00 0.00 0.00 67 1015.0
20260902064242 27 0 0.0 3.2 0.00 0.00 0.00 67 1015.1
20260902063742 27 0 0.0 1.6 0.00 0.00 0.00 67 1015.1
20260902063242 27 0 0.0 1.6 0.00 0.00 0.00 67 1015.1
20260902062744 27 0 0.0 1.6 0.00 0.00 0.00 67 1015.1
20260902062243 27 0 0.0 1.6 0.00 0.00 0.00 67 1015.1
20260902061742 27 0 0.0 1.6 0.00 0.00 0.00 67 1015.1
20260902061243 28 0 0.0 1.6 0.00 0.00 0.00 66 1015.1
20260902060743 28 0 0.0 1.6 0.00 0.00 0.00 66 1015.1
20260902060243 28 164 1.6 3.2 0.00 0.00 0.00 65 1015.1
20260902054742 28 157 1.6 3.2 0.00 0.00 0.00 64 1014.9
20260902053742 28 170 1.6 6.4 0.00 0.00 0.00 64 1014.8
20260902053242 28 167 1.6 4.8 0.00 0.00 0.00 64 1014.8
20260902052242 28 156 1.6 4.8 0.00 0.00 0.00 64 1014.7
20260902051743 28 162 1.6 3.2 0.00 0.00 0.00 64 1014.7
20260902050742 28 153 1.6 6.4 0.00 0.00 0.00 65 1014.9
20260902050243 28 154 1.6 6.4 0.00 0.00 0.00 65 1014.8
20260902045743 28 153 3.2 8.0 0.00 0.00 0.00 64 1014.8
20260902045242 29 153 4.8 8.0 0.00 0.00 0.00 64 1014.7